Index of /docker-ce/linux/ubuntu/dists/kinetic/pool/test/s390x/

/docker-ce/linux/ubuntu/dists/kinetic/pool/test/s390x/

File Name  ↓ File Size  ↓ Date  ↓ 
--
20.2 MiB06 Aug 2025 10:05:57 +0000
20.2 MiB06 Aug 2025 10:05:57 +0000
20.2 MiB06 Aug 2025 10:05:58 +0000
20.2 MiB06 Aug 2025 10:05:58 +0000
20.2 MiB06 Aug 2025 10:05:58 +0000
20.2 MiB06 Aug 2025 10:05:59 +0000
20.2 MiB06 Aug 2025 10:05:59 +0000
20.9 MiB06 Aug 2025 10:05:59 +0000
20.9 MiB06 Aug 2025 10:06:00 +0000
20.9 MiB06 Aug 2025 10:06:00 +0000
20.9 MiB06 Aug 2025 10:06:01 +0000
20.2 MiB06 Aug 2025 10:06:01 +0000
23.8 MiB06 Aug 2025 10:06:01 +0000
23.8 MiB06 Aug 2025 10:06:02 +0000
23.9 MiB06 Aug 2025 10:06:02 +0000
25.9 MiB06 Aug 2025 10:06:02 +0000
25.9 MiB31 Oct 2023 13:22:57 +0000
37.0 MiB06 Aug 2025 10:06:03 +0000
37.0 MiB06 Aug 2025 10:06:03 +0000
38.0 MiB06 Aug 2025 10:06:03 +0000
38.6 MiB06 Aug 2025 10:06:04 +0000
11.9 MiB06 Aug 2025 10:06:04 +0000
11.9 MiB06 Aug 2025 10:06:04 +0000
11.9 MiB06 Aug 2025 10:06:05 +0000
11.9 MiB06 Aug 2025 10:06:05 +0000
11.9 MiB06 Aug 2025 10:06:05 +0000
11.9 MiB06 Aug 2025 10:06:06 +0000
12.0 MiB06 Aug 2025 10:06:06 +0000
12.0 MiB06 Aug 2025 10:06:06 +0000
12.0 MiB06 Aug 2025 10:06:06 +0000
12.0 MiB06 Aug 2025 10:06:07 +0000
12.0 MiB31 Oct 2023 13:22:58 +0000
12.0 MiB31 Oct 2023 13:22:58 +0000
7.5 MiB02 Aug 2023 13:36:52 +0000
7.5 MiB02 Aug 2023 13:36:52 +0000
7.5 MiB02 Aug 2023 13:36:52 +0000
7.9 MiB02 Aug 2023 13:36:52 +0000
7.9 MiB02 Aug 2023 13:36:52 +0000
7.9 MiB02 Aug 2023 13:36:52 +0000
7.9 MiB02 Aug 2023 13:36:52 +0000
7.9 MiB02 Aug 2023 13:36:52 +0000
7.9 MiB02 Aug 2023 13:36:53 +0000
7.9 MiB02 Aug 2023 13:36:53 +0000
8.2 MiB06 Aug 2025 10:06:10 +0000
8.2 MiB06 Aug 2025 10:06:10 +0000
8.2 MiB06 Aug 2025 10:06:10 +0000
8.2 MiB06 Aug 2025 10:06:10 +0000
8.2 MiB31 Oct 2023 13:22:59 +0000
8.2 MiB31 Oct 2023 13:22:59 +0000
12.5 MiB06 Aug 2025 10:06:11 +0000
12.5 MiB06 Aug 2025 10:06:11 +0000
12.5 MiB06 Aug 2025 10:06:11 +0000
12.8 MiB06 Aug 2025 10:06:11 +0000
13.3 MiB06 Aug 2025 10:06:12 +0000
13.3 MiB06 Aug 2025 10:06:12 +0000
13.3 MiB06 Aug 2025 10:06:12 +0000
13.4 MiB06 Aug 2025 10:06:12 +0000
13.4 MiB06 Aug 2025 10:06:12 +0000
13.4 MiB06 Aug 2025 10:06:12 +0000
13.9 MiB06 Aug 2025 10:06:13 +0000
13.9 MiB06 Aug 2025 10:06:13 +0000
13.9 MiB06 Aug 2025 10:06:13 +0000
13.9 MiB06 Aug 2025 10:06:13 +0000
13.9 MiB31 Oct 2023 13:23:00 +0000
13.9 MiB31 Oct 2023 13:23:01 +0000
8.1 MiB06 Aug 2025 10:06:14 +0000
8.1 MiB06 Aug 2025 10:06:14 +0000
8.1 MiB06 Aug 2025 10:06:14 +0000
8.7 MiB06 Aug 2025 10:06:14 +0000
9.3 MiB06 Aug 2025 10:06:14 +0000
9.3 MiB06 Aug 2025 10:06:14 +0000
9.4 MiB06 Aug 2025 10:06:15 +0000
10.2 MiB06 Aug 2025 10:06:15 +0000
10.2 MiB31 Oct 2023 13:23:01 +0000